Flag for Saint Kitts and Nevis Weather past 2 weeks in Basseterre, Saint Kitts and Nevis

Now
81 °F

Passing clouds.


Feels Like: 85 °F
Forecast: 80 / 83 °F
Wind: 18 mph from Northeast

Location: Golden Rock

Current Time: Jun 30, 2015 at 12:04:12 AM

Latest Report: Jun 29, 2015 at 11:00 PM


Visibility: N/A

Pressure: 30.09 "Hg

Humidity: 74%

Dew point: 72 °F

Location of BasseterreLocation

Historic Weather in Basseterre — Graph

°F

Basseterre temperature yesterday

Maximum temperature yesterday: 90 °F (at 2:00 PM)
Minimum temperature yesterday: 81 °F (at 6:00 AM)
Average temperature yesterday: 84 °F

Past Weeks' High & Low Weather Summary

 TemperatureHumidityPressure
High90 °F (Jun 16, 2:00 PM)100% (Jun 22, 10:00 AM)30.15 "Hg (Jun 22, 10:00 AM)
Low72 °F (Jun 26, 8:00 PM)55% (Jun 15, 12:00 PM)30.01 "Hg (Jun 15, 4:00 PM)
Average84 °F72%30.09 "Hg
* Reported Jun 15 6:00 AM — Jun 29 10:00 PM, Basseterre, Weather by CustomWeather, © 2015

Note: Actual official high and low records may vary slightly from our data, if they occured in-between our weather recording intervals... More about our weather records

Advertising

Basseterre weather history for previous 24 hours

 ConditionsComfort  
Time TempWeatherWind HumidityBarometerVisibility
10:00 PM
Mon, Jun 29
81 °FPassing clouds.15 mph74%30.09 "HgN/A
9:00 PM81 °FPassing clouds.14 mph94%30.09 "HgN/A
8:00 PM81 °FPassing clouds.20 mph74%30.09 "HgN/A
7:00 PM81 °FPassing clouds.16 mph74%30.07 "HgN/A
6:00 PM82 °FPassing clouds.15 mph66%30.07 "HgN/A
5:00 PM84 °FPassing clouds.18 mph74%30.04 "HgN/A
4:00 PM86 °FPassing clouds.17 mph66%30.04 "HgN/A
3:00 PM86 °FPassing clouds.21 mph66%30.07 "HgN/A
2:00 PM90 °FPassing clouds.16 mph59%30.09 "HgN/A
1:00 PM88 °FPassing clouds.20 mph66%30.09 "HgN/A
12:00 PM86 °FScattered clouds.17 mph70%30.12 "HgN/A
11:00 AM86 °FScattered clouds.14 mph66%30.12 "HgN/A
10:00 AM82 °FPassing clouds.18 mph79%30.12 "HgN/A
9:00 AM84 °FPartly sunny.20 mph70%30.12 "HgN/A
8:00 AM84 °FPassing clouds.21 mph70%30.12 "HgN/A
7:00 AM81 °FScattered clouds.18 mph79%30.12 "HgN/A
6:00 AM81 °FPassing clouds.17 mph74%30.12 "HgN/A
Weather by CustomWeather, © 2015

See weather overviewHow to use our weather pages